Stations météo

réclame
Mon MeteoGroup
Elsenborn, Belgique (6496): Température de l'air & dewpoint: 26.05.2020 00:00:00 - 01.06.2020 00:00:00 (CEST)Elsenborn, Belgique (6496): Vitesse du vent & gusts: 26.05.2020 00:00:00 - 01.06.2020 00:00:00 (CEST)Elsenborn, Belgique (6496): Direction du vent: 26.05.2020 00:00:00 - 01.06.2020 00:00:00 (CEST)Elsenborn, Belgique (6496): reduced air pressure: 26.05.2020 00:00:00 - 01.06.2020 00:00:00 (CEST)Elsenborn, Belgique (6496): visibility: 26.05.2020 00:00:00 - 01.06.2020 00:00:00 (CEST)
Date & Time tt [°C] td [°C] ff [km/h] ff [knt] fx [km/h] fx [knt] dd ppp [hPa] vv [km]
01.06.2020 00:00:00 8,8 3,4 7 4 14 8 ESE 1023,2 20
31.05.2020 23:00:00 8,8 3,3 7 4 - - ESE 1022,8 20
31.05.2020 22:00:00 10,8 4,8 4 2 11 6 N 1022,2 20
31.05.2020 21:00:00 14,8 4,0 7 4 25 14 E 1020,7 20
31.05.2020 20:00:00 16,7 3,3 14 8 - - ENE 1020,0 20
31.05.2020 19:00:00 17,5 2,7 14 8 25 14 E 1019,7 18
31.05.2020 18:00:00 17,6 1,8 11 6 32 18 E 1019,7 20
31.05.2020 17:00:00 17,5 2,6 14 8 - - ENE 1019,8 20
31.05.2020 16:00:00 16,9 2,5 14 8 40 21 ENE 1020,2 20
31.05.2020 15:00:00 16,6 2,3 11 6 32 18 ENE 1020,2 20
31.05.2020 14:00:00 16,5 1,3 14 8 - - NE 1020,5 20
31.05.2020 13:00:00 15,1 0,6 18 10 32 18 NE 1021,2 20
31.05.2020 12:00:00 14,1 2,7 14 8 32 18 NE 1021,6 20
31.05.2020 11:00:00 13,5 3,1 14 8 - - ENE 1022,0 20
31.05.2020 10:00:00 12,7 3,6 18 10 32 18 NE 1022,1 20
31.05.2020 09:00:00 12,4 3,9 7 4 18 10 ENE 1022,1 20
31.05.2020 08:00:00 10,4 4,1 4 2 - - N 1022,5 20
31.05.2020 07:00:00 4,9 2,5 4 2 7 4 N 1023,7 20
31.05.2020 06:00:00 1,7 0,5 4 2 7 4 N 1024,5 20
31.05.2020 05:00:00 2,2 0,9 4 2 - - N 1024,5 20
31.05.2020 04:00:00 3,2 1,6 4 2 4 2 N 1024,2 20
31.05.2020 03:00:00 3,5 1,4 4 2 7 4 N 1024,2 20
31.05.2020 02:00:00 5,0 2,3 4 2 - - N 1024,2 20
31.05.2020 01:00:00 6,4 3,0 4 2 7 4 N 1024,0 20
31.05.2020 00:00:00 8,8 2,9 4 2 7 4 N 1023,5 20
30.05.2020 23:00:00 10,5 3,2 4 2 - - N 1022,7 20
30.05.2020 22:00:00 - - - - - - - - -
30.05.2020 21:00:00 - - - - - - - - -
30.05.2020 20:00:00 - - - - - - - - -
30.05.2020 19:00:00 17,7 2,0 7 4 32 18 ENE 1020,2 20
30.05.2020 18:00:00 18,1 3,1 14 8 29 16 ENE 1020,5 20
30.05.2020 17:00:00 18,2 3,0 11 6 - - NE 1020,7 20
30.05.2020 16:00:00 17,4 3,1 14 8 32 18 E 1021,2 20
30.05.2020 15:00:00 16,8 2,9 14 8 36 19 ENE 1021,7 18
30.05.2020 14:00:00 17,7 3,6 14 8 - - NE 1021,7 20
30.05.2020 13:00:00 17,6 2,3 11 6 36 19 E 1022,1 18
30.05.2020 12:00:00 16,7 2,1 14 8 32 18 ESE 1022,7 20
30.05.2020 11:00:00 16,4 2,4 14 8 - - ESE 1023,0 20
30.05.2020 10:00:00 15,4 2,1 18 10 32 18 ESE 1023,3 20
30.05.2020 09:00:00 13,6 2,8 11 6 25 14 ESE 1023,8 20
30.05.2020 08:00:00 11,6 4,0 4 2 - - N 1024,2 19
30.05.2020 07:00:00 7,5 3,5 4 2 4 2 N 1025,2 20
30.05.2020 06:00:00 3,0 1,3 4 2 4 2 N 1026,2 20
30.05.2020 05:00:00 3,0 1,2 4 2 - - N 1026,2 20
30.05.2020 04:00:00 2,9 1,1 4 2 7 4 N 1026,5 20
30.05.2020 03:00:00 3,7 1,3 4 2 7 4 N 1026,2 20
30.05.2020 02:00:00 4,4 1,7 4 2 - - N 1026,2 20
30.05.2020 01:00:00 6,2 2,3 4 2 7 4 N 1025,7 20
30.05.2020 00:00:00 8,6 2,7 4 2 7 4 N 1025,0 20
29.05.2020 23:00:00 11,0 3,2 7 4 - - NE 1024,4 20
29.05.2020 22:00:00 12,7 3,6 7 4 18 10 NNE 1024,0 20
29.05.2020 21:00:00 15,3 3,8 11 6 22 12 NE 1023,1 20
29.05.2020 20:00:00 17,5 3,1 7 4 - - ENE 1022,8 20
29.05.2020 19:00:00 17,8 2,6 18 10 32 18 NNE 1023,2 20
29.05.2020 18:00:00 18,3 2,8 11 6 29 16 E 1023,2 20
29.05.2020 17:00:00 18,5 4,5 11 6 - - ENE 1023,7 20
29.05.2020 16:00:00 17,9 2,2 14 8 32 18 NE 1024,5 20
29.05.2020 15:00:00 18,0 3,3 11 6 29 16 ENE 1024,9 20
29.05.2020 14:00:00 17,6 2,7 14 8 - - ENE 1025,7 20
29.05.2020 13:00:00 16,4 3,0 14 8 29 16 NE 1026,4 19
29.05.2020 12:00:00 16,3 2,9 11 6 29 16 E 1027,0 20
29.05.2020 11:00:00 14,6 1,8 11 6 - - E 1027,7 20
29.05.2020 10:00:00 14,2 1,5 11 6 22 12 SE 1028,0 20
29.05.2020 09:00:00 13,5 2,6 7 4 18 10 ESE 1028,2 20
29.05.2020 08:00:00 10,2 3,8 4 2 - - N 1029,0 20
29.05.2020 07:00:00 5,6 2,3 4 2 7 4 N 1030,2 20
29.05.2020 06:00:00 1,4 0,2 4 2 7 4 N 1031,2 20
29.05.2020 05:00:00 1,7 0,4 4 2 - - N 1031,4 20
29.05.2020 04:00:00 2,9 0,8 4 2 7 4 N 1031,2 20
29.05.2020 03:00:00 4,5 0,8 4 2 7 4 N 1031,2 20
29.05.2020 02:00:00 5,9 0,9 7 4 - - E 1031,0 20
29.05.2020 01:00:00 7,1 1,1 4 2 11 6 N 1030,9 20
29.05.2020 00:00:00 7,1 0,6 7 4 11 6 N 1031,0 20
28.05.2020 23:00:00 10,0 0,2 7 4 - - NE 1030,2 20
28.05.2020 22:00:00 11,3 0,5 7 4 14 8 NE 1030,0 20
28.05.2020 21:00:00 13,7 0,0 11 6 25 14 NE 1029,2 20
28.05.2020 20:00:00 15,5 -0,2 14 8 - - NE 1029,0 20
28.05.2020 19:00:00 15,9 -1,1 14 8 29 16 ENE 1029,4 20
28.05.2020 18:00:00 16,7 0,7 18 10 32 18 NE 1029,5 20
28.05.2020 17:00:00 16,6 1,7 18 10 - - NE 1029,7 20
28.05.2020 16:00:00 16,6 3,2 18 10 36 19 NE 1030,2 20
28.05.2020 15:00:00 16,5 2,2 22 12 36 19 NE 1030,7 20
28.05.2020 14:00:00 15,9 2,2 14 8 - - ENE 1031,0 19
28.05.2020 13:00:00 14,9 2,4 14 8 36 19 ENE 1031,7 20
28.05.2020 12:00:00 14,0 4,1 22 12 36 19 NE 1032,0 20
28.05.2020 11:00:00 14,0 3,5 14 8 - - NE 1032,2 20
28.05.2020 10:00:00 12,5 5,8 22 12 32 18 NE 1032,5 20
28.05.2020 09:00:00 10,8 5,9 14 8 29 16 ENE 1032,7 20
28.05.2020 08:00:00 8,6 5,3 14 8 - - NE 1033,4 20
28.05.2020 07:00:00 7,5 3,9 7 4 22 12 ENE 1033,7 20
28.05.2020 06:00:00 6,9 4,7 11 6 22 12 NE 1033,5 20
28.05.2020 05:00:00 8,7 6,1 7 4 - - ENE 1033,0 20
28.05.2020 04:00:00 10,1 7,7 14 8 22 12 NE 1032,7 20
28.05.2020 03:00:00 10,3 8,1 7 4 14 8 NE 1032,7 20
28.05.2020 02:00:00 9,9 7,0 7 4 - - NE 1033,0 20
28.05.2020 01:00:00 10,2 6,4 7 4 14 8 NNE 1033,2 20
28.05.2020 00:00:00 11,4 7,2 11 6 14 8 N 1033,2 20
27.05.2020 23:00:00 13,1 7,5 7 4 - - N 1032,7 20
27.05.2020 22:00:00 14,6 7,2 11 6 18 10 N 1032,0 20
27.05.2020 21:00:00 16,0 8,6 7 4 22 12 N 1031,2 20
27.05.2020 20:00:00 17,2 8,5 11 6 - - N 1031,0 19
27.05.2020 19:00:00 18,6 8,6 14 8 25 14 NNE 1030,7 20
27.05.2020 18:00:00 18,2 7,9 14 8 25 14 N 1031,2 19
27.05.2020 17:00:00 18,6 7,3 14 8 - - N 1031,2 20
27.05.2020 16:00:00 18,8 6,1 14 8 25 14 NNE 1031,2 18
27.05.2020 15:00:00 20,0 6,1 11 6 25 14 N 1031,4 20
27.05.2020 14:00:00 19,7 5,5 7 4 - - N 1031,7 20
27.05.2020 13:00:00 18,8 4,3 11 6 25 14 NNE 1032,2 18
27.05.2020 12:00:00 18,0 4,7 11 6 25 14 NE 1032,7 18
27.05.2020 11:00:00 17,3 4,8 7 4 - - N 1032,9 20
27.05.2020 10:00:00 16,7 5,4 7 4 18 10 NNE 1033,0 19
27.05.2020 09:00:00 15,4 6,5 4 2 4 2 N 1033,5 20
27.05.2020 08:00:00 10,2 6,7 4 2 - - N 1035,0 20
27.05.2020 07:00:00 5,0 2,9 4 2 4 2 N 1036,2 20
27.05.2020 06:00:00 1,6 1,2 4 2 4 2 N 1037,0 19
27.05.2020 05:00:00 2,0 1,6 4 2 - - N 1036,7 20
27.05.2020 04:00:00 2,5 2,0 4 2 4 2 N 1036,7 20
27.05.2020 03:00:00 3,0 2,2 4 2 7 4 N 1036,9 20
27.05.2020 02:00:00 4,1 2,9 4 2 - - N 1036,9 20
27.05.2020 01:00:00 5,3 3,5 4 2 7 4 N 1036,9 20
27.05.2020 00:00:00 6,5 4,2 4 2 7 4 N 1036,5 20
26.05.2020 23:00:00 8,4 4,6 4 2 - - N 1036,2 20
26.05.2020 22:00:00 11,1 4,7 4 2 11 6 N 1035,4 20
26.05.2020 21:00:00 14,5 3,9 7 4 22 12 NNE 1034,2 20
26.05.2020 20:00:00 16,8 3,6 11 6 - - NNE 1033,5 20
26.05.2020 19:00:00 17,4 2,5 14 8 25 14 N 1033,5 20
26.05.2020 18:00:00 18,2 3,1 14 8 25 14 NE 1033,2 20
26.05.2020 17:00:00 18,2 3,7 11 6 - - NE 1033,4 20
26.05.2020 16:00:00 18,0 4,9 14 8 32 18 ENE 1033,5 16
26.05.2020 15:00:00 18,0 4,6 18 10 29 16 NE 1033,7 20
26.05.2020 14:00:00 16,9 3,3 14 8 - - NNE 1034,0 20
26.05.2020 13:00:00 16,9 7,2 14 8 29 16 N 1034,2 20
26.05.2020 12:00:00 16,0 6,7 14 8 32 18 NE 1034,7 20
26.05.2020 11:00:00 14,7 5,0 18 10 - - NE 1035,0 20
26.05.2020 10:00:00 14,0 5,1 14 8 25 14 NNE 1035,2 18
26.05.2020 09:00:00 11,9 6,7 7 4 11 6 NNE 1035,4 20
26.05.2020 08:00:00 8,8 6,9 4 2 - - N 1035,9 20
26.05.2020 07:00:00 4,4 3,5 0 0 4 2 N 1036,9 10
26.05.2020 06:00:00 1,9 1,5 4 2 7 4 - 1037,4 10
26.05.2020 05:00:00 2,5 2,2 2 1 - - - 1037,0 0,5
26.05.2020 04:00:00 3,5 3,0 4 2 7 4 N 1036,7 14
26.05.2020 03:00:00 5,2 4,8 4 2 7 4 N 1036,2 14
26.05.2020 02:00:00 6,4 5,6 4 2 - - N 1036,2 18
26.05.2020 01:00:00 7,2 6,1 4 2 11 6 N 1036,0 17
26.05.2020 00:00:00 8,4 6,5 7 4 11 6 NNE 1035,7 20

tt = Température de l'air
td = dewpoint
ff = Vitesse du vent
fx = gusts
dd = Direction du vent
ppp = reduced air pressure
vv = visibility

stations d'obs. à proximité